Weather History for Clinton, OK

Change the Weather History Date:

Monday, May 13, 2013

  Actual Average (KCSM) Record (KCSM)
Temperature  
Mean Temperature 72 °F -  
Max Temperature 91 °F 79 °F 93 °F (2013)
Min Temperature 53 °F 55 °F 43 °F (2014)
Cooling Degree Days 7    
Growing Degree Days 22 (Base 50)    
Moisture  
Dew Point 37 °F    
Average Humidity 34    
Maximum Humidity 62    
Minimum Humidity 10    
Precipitation  
Precipitation 0.00 in - - ()
Sea Level Pressure  
Sea Level Pressure 30.07 in    
Wind  
Wind Speed 10 mph (SSW)    
Max Wind Speed 17 mph    
Max Gust Speed 33 mph    
Visibility 10 miles    
Events      
Averages and records for this station are not official NWS values.
T = Trace of Precipitation, MM = Missing Value Source: NWS Daily Summary

Daily Weather History Graph

Daily Weather History Graph

Search for Another Location

Airport:

Trip Planner

Search our weather history database for the weather conditions in past years. The results will help you decide how hot, cold, wet, or windy it might be!

Date:

Astronomy

May. 13, 2013 Rise Set
Actual Time 6:32 AM CDT 8:32 PM CDT
Civil Twilight 6:04 AM CDT 9:00 PM CDT
Nautical Twilight 5:29 AM CDT 9:34 PM CDT
Astronomical Twilight 4:53 AM CDT 10:11 PM CDT
Moon 9:20 AM CDT (5/13) 11:42 PM CDT (5/13)
Length of Visible Light 14h 56m
Length of Day
13h 59m
Waxing Crescent, 12% of the Moon is Illuminated
May 13
Waxing Crescent
May 17
First Quarter
May 24
Full
May 31
Last Quarter
Jun 8
New

Hourly Weather History & Observations

Time (CDT) Temp. Dew Point Humidity Pressure Visibility Wind Dir Wind Speed Gust Speed Precip Events Conditions
12:15 AM 59.0 °F 44.6 °F 59% 30.09 in 10.0 mi SSE 12.7 mph - N/A   Clear
12:35 AM 59.0 °F 42.8 °F 55% 30.09 in 10.0 mi SSE 11.5 mph - N/A   Clear
12:55 AM 59.0 °F 42.8 °F 55% 30.09 in 10.0 mi SSE 10.4 mph - N/A   Clear
1:15 AM 59.0 °F 41.0 °F 51% 30.09 in 10.0 mi SSE 10.4 mph - N/A   Clear
1:35 AM 59.0 °F 41.0 °F 51% 30.09 in 10.0 mi SSE 9.2 mph - N/A   Clear
1:55 AM 59.0 °F 41.0 °F 51% 30.09 in 10.0 mi SSE 9.2 mph - N/A   Clear
2:15 AM 57.2 °F 41.0 °F 55% 30.09 in 10.0 mi SSE 8.1 mph - N/A   Clear
2:35 AM 55.4 °F 41.0 °F 58% 30.09 in 10.0 mi SSE 8.1 mph - N/A   Clear
2:55 AM 55.4 °F 41.0 °F 58% 30.09 in 10.0 mi SSE 6.9 mph - N/A   Clear
3:15 AM 55.4 °F 41.0 °F 58% 30.09 in 10.0 mi SSE 8.1 mph - N/A   Clear
3:35 AM 57.2 °F 41.0 °F 55% 30.09 in 10.0 mi South 5.8 mph - N/A   Clear
3:55 AM 57.2 °F 42.8 °F 59% 30.08 in 10.0 mi South 5.8 mph - N/A   Clear
4:15 AM 57.2 °F 42.8 °F 59% 30.08 in 10.0 mi South 8.1 mph - N/A   Clear
4:35 AM 59.0 °F 41.0 °F 51% 30.08 in 10.0 mi SSW 8.1 mph - N/A   Clear
4:55 AM 59.0 °F 41.0 °F 51% 30.08 in 10.0 mi SW 6.9 mph - N/A   Clear
5:15 AM 57.2 °F 41.0 °F 55% 30.08 in 10.0 mi SSW 10.4 mph - N/A   Clear
5:35 AM 60.8 °F 39.2 °F 45% 30.07 in 10.0 mi SW 11.5 mph - N/A   Clear
5:55 AM 60.8 °F 39.2 °F 45% 30.08 in 10.0 mi SSW 8.1 mph - N/A   Clear
6:15 AM 59.0 °F 41.0 °F 51% 30.08 in 10.0 mi South 5.8 mph - N/A   Clear
6:55 AM 53.6 °F 41.0 °F 62% 30.09 in 10.0 mi South 4.6 mph - N/A   Clear
7:15 AM 55.4 °F 41.0 °F 58% 30.10 in 10.0 mi South 5.8 mph - N/A   Clear
7:35 AM 59.0 °F 42.8 °F 55% 30.10 in 10.0 mi SSE 5.8 mph - N/A   Clear
7:55 AM 59.0 °F 42.8 °F 55% 30.11 in 10.0 mi South 5.8 mph - N/A   Clear
8:15 AM 60.8 °F 42.8 °F 52% 30.11 in 10.0 mi South 4.6 mph - N/A   Clear
8:35 AM 62.6 °F 44.6 °F 52% 30.12 in 10.0 mi South 4.6 mph - N/A   Clear
8:55 AM 66.2 °F 44.6 °F 46% 30.12 in 10.0 mi SSW 8.1 mph - N/A   Clear
9:15 AM 69.8 °F 39.2 °F 33% 30.12 in 10.0 mi SW 11.5 mph 16.1 mph N/A   Clear
9:35 AM 69.8 °F 39.2 °F 33% 30.12 in 10.0 mi SW 11.5 mph - N/A   Clear
9:55 AM 71.6 °F 39.2 °F 31% 30.12 in 10.0 mi WSW 11.5 mph - N/A   Clear
10:15 AM 73.4 °F 37.4 °F 27% 30.12 in 10.0 mi WSW 12.7 mph - N/A   Clear
10:35 AM 77.0 °F 37.4 °F 24% 30.12 in 10.0 mi WSW 12.7 mph - N/A   Clear
10:55 AM 78.8 °F 37.4 °F 23% 30.11 in 10.0 mi West 12.7 mph - N/A   Clear
11:15 AM 78.8 °F 35.6 °F 21% 30.11 in 10.0 mi WSW 12.7 mph 17.3 mph N/A   Clear
11:35 AM 80.6 °F 35.6 °F 20% 30.11 in 10.0 mi WSW 11.5 mph - N/A   Clear
11:55 AM 82.4 °F 35.6 °F 19% 30.11 in 10.0 mi West 11.5 mph - N/A   Clear
12:15 PM 84.2 °F 35.6 °F 18% 30.11 in 10.0 mi SW 13.8 mph - N/A   Clear
12:35 PM 86.0 °F 33.8 °F 15% 30.10 in 10.0 mi SW 13.8 mph - N/A   Clear
12:55 PM 86.0 °F 33.8 °F 15% 30.09 in 10.0 mi WSW 9.2 mph - N/A   Clear
1:15 PM 87.8 °F 33.8 °F 15% 30.09 in 10.0 mi SW 12.7 mph - N/A   Clear
1:35 PM 87.8 °F 33.8 °F 15% 30.08 in 10.0 mi WSW 11.5 mph - N/A   Clear
1:55 PM 89.6 °F 33.8 °F 14% 30.08 in 10.0 mi SW 15.0 mph 18.4 mph N/A   Clear
2:15 PM 89.6 °F 30.2 °F 12% 30.07 in 10.0 mi South 5.8 mph - N/A   Clear
2:35 PM 89.6 °F 32.0 °F 13% 30.06 in 10.0 mi SSW 13.8 mph 18.4 mph N/A   Clear
3:35 PM 91.4 °F 30.2 °F 11% 30.05 in 10.0 mi SSW 15.0 mph 19.6 mph N/A   Clear
3:55 PM 91.4 °F 30.2 °F 11% 30.05 in 10.0 mi SSW 12.7 mph 20.7 mph N/A   Clear
4:15 PM 91.4 °F 30.2 °F 11% 30.04 in 10.0 mi SSW 17.3 mph 33.4 mph N/A   Clear
4:35 PM 91.4 °F 28.4 °F 10% 30.04 in 10.0 mi SW 9.2 mph 21.9 mph N/A   Clear
4:55 PM 91.4 °F 26.6 °F 10% 30.03 in 10.0 mi SSW 12.7 mph - N/A   Clear
5:15 PM 91.4 °F 28.4 °F 10% 30.02 in 10.0 mi SW 17.3 mph 20.7 mph N/A   Clear
5:35 PM 91.4 °F 26.6 °F 10% 30.02 in 10.0 mi SSW 16.1 mph 24.2 mph N/A   Clear
5:55 PM 89.6 °F 26.6 °F 10% 30.02 in 10.0 mi SW 13.8 mph 20.7 mph N/A   Clear
6:35 PM 89.6 °F 30.2 °F 12% 30.01 in 10.0 mi SSW 13.8 mph - N/A   Clear
7:15 PM 87.8 °F 32.0 °F 14% 30.00 in 10.0 mi SSW 9.2 mph - N/A   Clear
7:35 PM 86.0 °F 35.6 °F 17% 30.00 in 10.0 mi South 10.4 mph - N/A   Clear
7:55 PM 82.4 °F 35.6 °F 19% 30.00 in 10.0 mi South 9.2 mph - N/A   Clear
8:15 PM 80.6 °F 35.6 °F 20% 30.01 in 10.0 mi South 10.4 mph - N/A   Clear
8:35 PM 77.0 °F 37.4 °F 24% 30.01 in 10.0 mi South 10.4 mph - N/A   Clear
9:15 PM 71.6 °F 37.4 °F 29% 30.03 in 10.0 mi South 9.2 mph - N/A   Clear
9:35 PM 71.6 °F 37.4 °F 29% 30.03 in 10.0 mi SSE 10.4 mph - N/A   Clear
9:55 PM 69.8 °F 37.4 °F 31% 30.04 in 10.0 mi SSE 10.4 mph - N/A   Clear
10:15 PM 69.8 °F 37.4 °F 31% 30.04 in 10.0 mi SSE 10.4 mph - N/A   Clear
10:35 PM 69.8 °F 37.4 °F 31% 30.05 in 10.0 mi SSE 10.4 mph - N/A   Clear
10:55 PM 68.0 °F 37.4 °F 33% 30.05 in 10.0 mi SSE 10.4 mph - N/A   Clear
11:15 PM 68.0 °F 37.4 °F 33% 30.05 in 10.0 mi SSE 9.2 mph - N/A   Clear
11:35 PM 66.2 °F 37.4 °F 35% 30.05 in 10.0 mi South 9.2 mph - N/A   Clear
11:55 PM 64.4 °F 37.4 °F 37% 30.05 in 10.0 mi South 9.2 mph - N/A   Clear